,,,PA_Meas_PMT16A,,PR_Meas_QMR101_102,,RH_Meas_QMH101,,SR_Meas_QMS101,,TA_Meas_QMH101,,GenWind,,GenWind,
date,time,status,PA,status,PR,status,RH,status,SR,status,TA,status,DirAvg,status,SpdAvg,
2010-02-26, 00:00:04,VALID,1010.55,VALID,0,VALID,95.7795,VALID,0,VALID,25.0583,VALID,210,VALID,0.389453,
2010-02-26, 00:01:04,VALID,1010.52,VALID,0,VALID,95.8023,VALID,0,VALID,25.0583,VALID,207,VALID,0.332812,
2010-02-26, 00:02:04,VALID,1010.48,VALID,0,VALID,95.8252,VALID,0,VALID,25.0388,VALID,207,VALID,0.512109,
2010-02-26, 00:03:04,VALID,1010.45,VALID,0,VALID,95.9167,VALID,0,VALID,25.0193,VALID,207,VALID,0.436719,
2010-02-26, 00:04:04,VALID,1010.41,VALID,0,VALID,95.9625,VALID,0,VALID,24.9998,VALID,207,VALID,0.669141,
2010-02-26, 00:05:04,VALID,1010.4,VALID,0,VALID,96.0159,VALID,0,VALID,24.9803,VALID,193,VALID,0.715625,
2010-02-26, 00:06:04,VALID,1010.39,VALID,0,VALID,96.054,VALID,0,VALID,24.9608,VALID,193,VALID,0.649219,
2010-02-26, 00:07:04,VALID,1010.38,VALID,0,VALID,96.1074,VALID,0,VALID,24.9413,VALID,180,VALID,0.835938,
2010-02-26, 00:08:04,VALID,1010.37,VALID,0,VALID,96.1608,VALID,0,VALID,24.9413,VALID,160,VALID,0.608594,
2010-02-26, 00:09:04,VALID,1010.34,VALID,0,VALID,96.2294,VALID,0,VALID,24.9218,VALID,176,VALID,0.61875,
2010-02-26, 00:10:04,VALID,1010.35,VALID,0,VALID,96.2523,VALID,0,VALID,24.9218,VALID,170,VALID,0.0359375,
2010-02-26, 00:11:04,VALID,1010.38,VALID,0,VALID,96.2904,VALID,0,VALID,24.9413,VALID,170,VALID,0.232422,
2010-02-26, 00:12:04,VALID,1010.35,VALID,0,VALID,96.3056,VALID,0,VALID,24.9218,VALID,169,VALID,0.347266,
2010-02-26, 00:13:04,VALID,1010.38,VALID,0,VALID,96.3666,VALID,0,VALID,24.9413,VALID,157,VALID,0.302734,
2010-02-26, 00:14:04,VALID,1010.37,VALID,0,VALID,96.4048,VALID,0,VALID,24.9413,VALID,156,VALID,0.331641,
2010-02-26, 00:15:04,VALID,1010.34,VALID,0,VALID,96.4124,VALID,0,VALID,24.9608,VALID,156,VALID,0,
2010-02-26, 00:16:04,VALID,1010.33,VALID,0,VALID,96.4582,VALID,0,VALID,24.9998,VALID,156,VALID,0.164453,
2010-02-26, 00:17:04,VALID,1010.33,VALID,0,VALID,96.4887,VALID,0,VALID,24.9998,VALID,156,VALID,0.553906,
2010-02-26, 00:18:04,VALID,1010.32,VALID,0,VALID,96.542,VALID,0,VALID,25.0388,VALID,157,VALID,0.110156,
2010-02-26, 00:19:04,VALID,1010.34,VALID,0,VALID,96.542,VALID,0,VALID,25.0583,VALID,174,VALID,0.492578,
2010-02-26, 00:20:04,VALID,1010.34,VALID,0,VALID,96.5268,VALID,0,VALID,25.0583,VALID,174,VALID,0.333984,
2010-02-26, 00:21:04,VALID,1010.32,VALID,0,VALID,96.542,VALID,0,VALID,25.0778,VALID,174,VALID,0,
2010-02-26, 00:22:04,VALID,1010.34,VALID,0,VALID,96.5649,VALID,0,VALID,25.0778,VALID,174,VALID,0,
2010-02-26, 00:23:04,VALID,1010.32,VALID,0,VALID,96.5649,VALID,0,VALID,25.0973,VALID,174,VALID,0,
2010-02-26, 00:24:04,VALID,1010.27,VALID,0,VALID,96.5649,VALID,0,VALID,25.1167,VALID,174,VALID,0,
2010-02-26, 00:25:04,VALID,1010.24,VALID,0,VALID,96.5725,VALID,0,VALID,25.1167,VALID,174,VALID,0,
2010-02-26, 00:26:04,VALID,1010.21,VALID,0,VALID,96.5802,VALID,0,VALID,25.1362,VALID,175,VALID,0.482422,
2010-02-26, 00:27:04,VALID,1010.14,VALID,0,VALID,96.5802,VALID,0,VALID,25.1167,VALID,207,VALID,0.161328,
2010-02-26, 00:28:04,VALID,1010.12,VALID,0,VALID,96.5802,VALID,0,VALID,25.1167,VALID,197,VALID,0.213281,
2010-02-26, 00:29:04,VALID,1010.1,VALID,0,VALID,96.5802,VALID,0,VALID,25.1362,VALID,197,VALID,0,
2010-02-26, 00:30:04,VALID,1010.07,VALID,0,VALID,96.603,VALID,0,VALID,25.1557,VALID,197,VALID,0,
2010-02-26, 00:31:04,VALID,1010.1,VALID,0,VALID,96.6183,VALID,0,VALID,25.1557,VALID,132,VALID,0.348828,
2010-02-26, 00:32:04,VALID,1010.12,VALID,0,VALID,96.6335,VALID,0,VALID,25.1752,VALID,129,VALID,0.417188,
2010-02-26, 00:33:04,VALID,1010.11,VALID,0,VALID,96.664,VALID,0,VALID,25.1752,VALID,103,VALID,0.348828,
2010-02-26, 00:34:04,VALID,1010.13,VALID,0,VALID,96.6183,VALID,0,VALID,25.1362,VALID,38,VALID,0.467187,
2010-02-26, 00:35:04,VALID,1010.15,VALID,0,VALID,96.5725,VALID,0,VALID,25.1167,VALID,35,VALID,0.397656,
2010-02-26, 00:36:04,VALID,1010.18,VALID,0,VALID,96.4582,VALID,0,VALID,25.0583,VALID,35,VALID,0.326953,
2010-02-26, 00:37:04,VALID,1010.18,VALID,0,VALID,96.481,VALID,0,VALID,25.0388,VALID,15,VALID,0.415625,
2010-02-26, 00:38:04,VALID,1010.16,VALID,0,VALID,96.5649,VALID,0.105969,VALID,25.0388,VALID,14,VALID,0.501172,
2010-02-26, 00:39:04,VALID,1010.14,VALID,0,VALID,96.5878,VALID,0,VALID,25.0193,VALID,1,VALID,0.624609,
2010-02-26, 00:40:04,VALID,1010.11,VALID,0,VALID,96.6335,VALID,0,VALID,25.0193,VALID,359,VALID,0.572266,
2010-02-26, 00:41:04,VALID,1010.09,VALID,0,VALID,96.6717,VALID,0,VALID,24.9998,VALID,359,VALID,0.478516,
2010-02-26, 00:42:04,VALID,1010.1,VALID,0,VALID,96.6793,VALID,0,VALID,24.9413,VALID,359,VALID,0.528906,
2010-02-26, 00:43:04,VALID,1010.07,VALID,0,VALID,96.7022,VALID,0,VALID,24.9413,VALID,359,VALID,0.358203,
2010-02-26, 00:44:04,VALID,1010.06,VALID,0,VALID,96.7098,VALID,0,VALID,24.9004,VALID,359,VALID,0.284766,
2010-02-26, 00:45:04,VALID,1010.03,VALID,0,VALID,96.7556,VALID,0,VALID,24.8828,VALID,359,VALID,0.419531,
2010-02-26, 00:46:04,VALID,1010.03,VALID,0,VALID,96.7861,VALID,0,VALID,24.8828,VALID,359,VALID,0.253906,
2010-02-26, 00:47:04,VALID,1010.03,VALID,0,VALID,96.8166,VALID,0,VALID,24.8633,VALID,359,VALID,0.171875,
2010-02-26, 00:48:04,VALID,1010.02,VALID,0,VALID,96.8089,VALID,0,VALID,24.8438,VALID,359,VALID,0.218359,
2010-02-26, 00:49:04,VALID,1010.01,VALID,0,VALID,96.8394,VALID,0,VALID,24.8244,VALID,359,VALID,0,
2010-02-26, 00:50:04,VALID,1010.04,VALID,0,VALID,96.8318,VALID,0,VALID,24.7835,VALID,359,VALID,0,
2010-02-26, 00:51:04,VALID,1009.99,VALID,0,VALID,96.8623,VALID,0,VALID,24.8244,VALID,359,VALID,0,
2010-02-26, 00:52:04,VALID,1009.99,VALID,0,VALID,96.8623,VALID,0,VALID,24.803,VALID,359,VALID,0,
2010-02-26, 00:53:04,VALID,1009.99,VALID,0,VALID,96.8776,VALID,0,VALID,24.8244,VALID,359,VALID,0,
2010-02-26, 00:54:04,VALID,1009.97,VALID,0,VALID,96.8928,VALID,0,VALID,24.8244,VALID,359,VALID,0.116016,
2010-02-26, 00:55:04,VALID,1009.94,VALID,0,VALID,96.931,VALID,0,VALID,24.8049,VALID,359,VALID,0.413672,
2010-02-26, 00:56:04,VALID,1009.91,VALID,0,VALID,96.9386,VALID,0,VALID,24.8049,VALID,359,VALID,0.476953,
2010-02-26, 00:57:04,VALID,1009.92,VALID,0,VALID,96.9157,VALID,0,VALID,24.7854,VALID,359,VALID,0.528906,
2010-02-26, 00:58:04,VALID,1009.9,VALID,0,VALID,96.9081,VALID,0,VALID,24.7659,VALID,359,VALID,0.506641,
2010-02-26, 00:59:04,VALID,1009.89,VALID,0,VALID,96.9462,VALID,0,VALID,24.7445,VALID,358,VALID,0.207813,
2010-02-26, 01:00:04,VALID,1009.88,VALID,0,VALID,96.9386,VALID,0.105969,VALID,24.7659,VALID,358,VALID,0.0753906,
2010-02-26, 01:01:04,VALID,1009.85,VALID,0,VALID,96.9462,VALID,0,VALID,24.7445,VALID,358,VALID,0,
2010-02-26, 01:02:04,VALID,1009.83,VALID,0,VALID,96.9233,VALID,0,VALID,24.7464,VALID,358,VALID,0,
2010-02-26, 01:03:04,VALID,1009.82,VALID,0,VALID,96.931,VALID,0,VALID,24.7464,VALID,358,VALID,0,
2010-02-26, 01:04:04,VALID,1009.82,VALID,0,VALID,96.9386,VALID,0,VALID,24.7464,VALID,358,VALID,0.347266,
2010-02-26, 01:05:04,VALID,1009.79,VALID,0,VALID,96.9538,VALID,0,VALID,24.725,VALID,358,VALID,0.403125,
2010-02-26, 01:06:04,VALID,1009.78,VALID,0,VALID,96.9767,VALID,0,VALID,24.7269,VALID,19,VALID,0.407422,
2010-02-26, 01:07:04,VALID,1009.77,VALID,0,VALID,96.9615,VALID,0,VALID,24.686,VALID,19,VALID,0.25,
2010-02-26, 01:08:04,VALID,1009.74,VALID,0,VALID,96.9538,VALID,0,VALID,24.7074,VALID,19,VALID,0,
2010-02-26, 01:09:04,VALID,1009.75,VALID,0,VALID,96.9462,VALID,0,VALID,24.686,VALID,19,VALID,0,
2010-02-26, 01:10:04,VALID,1009.7,VALID,0,VALID,96.9538,VALID,0,VALID,24.7074,VALID,19,VALID,0,
2010-02-26, 01:11:04,VALID,1009.69,VALID,0,VALID,96.9538,VALID,0,VALID,24.6879,VALID,9,VALID,0.0871094,
2010-02-26, 01:12:04,VALID,1009.67,VALID,0,VALID,96.9615,VALID,0,VALID,24.6666,VALID,360,VALID,0.416406,
2010-02-26, 01:13:04,VALID,1009.64,VALID,0,VALID,96.9615,VALID,0,VALID,24.6879,VALID,360,VALID,0.114453,
2010-02-26, 01:14:04,VALID,1009.63,VALID,0,VALID,96.9691,VALID,0,VALID,24.7074,VALID,360,VALID,0.0738281,
2010-02-26, 01:15:04,VALID,1009.59,VALID,0,VALID,96.9615,VALID,0,VALID,24.7074,VALID,360,VALID,0,
2010-02-26, 01:16:04,VALID,1009.59,VALID,0,VALID,96.9691,VALID,0,VALID,24.7269,VALID,360,VALID,0,
2010-02-26, 01:17:04,VALID,1009.59,VALID,0,VALID,96.9615,VALID,0,VALID,24.7269,VALID,360,VALID,0,
2010-02-26, 01:18:04,VALID,1009.59,VALID,0,VALID,96.9615,VALID,0,VALID,24.7464,VALID,313,VALID,0.0773437,
2010-02-26, 01:19:04,VALID,1009.57,VALID,0,VALID,96.9538,VALID,0,VALID,24.7659,VALID,313,VALID,0.120703,
2010-02-26, 01:20:04,VALID,1009.59,VALID,0,VALID,96.9691,VALID,0,VALID,24.7854,VALID,313,VALID,0,
2010-02-26, 01:21:04,VALID,1009.59,VALID,0,VALID,96.9538,VALID,0,VALID,24.7854,VALID,313,VALID,0,
2010-02-26, 01:22:04,VALID,1009.6,VALID,0,VALID,96.9462,VALID,0,VALID,24.803,VALID,275,VALID,0.233984,
2010-02-26, 01:23:04,VALID,1009.59,VALID,0,VALID,96.931,VALID,0,VALID,24.8438,VALID,230,VALID,0.407031,
2010-02-26, 01:24:04,VALID,1009.58,VALID,0,VALID,96.9538,VALID,0,VALID,24.8633,VALID,230,VALID,0.0957031,
2010-02-26, 01:25:04,VALID,1009.58,VALID,0,VALID,96.9767,VALID,0,VALID,24.8633,VALID,230,VALID,0,
2010-02-26, 01:26:04,VALID,1009.53,VALID,0,VALID,96.9538,VALID,0,VALID,24.8828,VALID,230,VALID,0,
2010-02-26, 01:27:04,VALID,1009.53,VALID,0,VALID,96.9615,VALID,0,VALID,24.8615,VALID,230,VALID,0,
2010-02-26, 01:28:04,VALID,1009.49,VALID,0,VALID,96.9691,VALID,0,VALID,24.8828,VALID,230,VALID,0,
2010-02-26, 01:29:04,VALID,1009.53,VALID,0,VALID,96.9691,VALID,0,VALID,24.8828,VALID,230,VALID,0,
2010-02-26, 01:30:04,VALID,1009.49,VALID,0,VALID,96.9615,VALID,0,VALID,24.8828,VALID,165,VALID,0,
2010-02-26, 01:31:04,VALID,1009.48,VALID,0,VALID,96.9691,VALID,0,VALID,24.8828,VALID,165,VALID,0.242188,
2010-02-26, 01:32:04,VALID,1009.49,VALID,0,VALID,96.9538,VALID,0,VALID,24.9023,VALID,165,VALID,0.378516,
2010-02-26, 01:33:04,VALID,1009.5,VALID,0,VALID,96.9691,VALID,0,VALID,24.8828,VALID,165,VALID,0.328125,
2010-02-26, 01:34:04,VALID,1009.49,VALID,0,VALID,96.9843,VALID,0,VALID,24.9023,VALID,165,VALID,0.313672,
2010-02-26, 01:35:04,VALID,1009.47,VALID,0,VALID,96.9767,VALID,0,VALID,24.9023,VALID,165,VALID,0,
2010-02-26, 01:36:04,VALID,1009.46,VALID,0,VALID,96.9538,VALID,0,VALID,24.9023,VALID,165,VALID,0,
2010-02-26, 01:37:04,VALID,1009.43,VALID,0,VALID,96.9538,VALID,0,VALID,24.9218,VALID,165,VALID,0,
2010-02-26, 01:38:04,VALID,1009.45,VALID,0,VALID,96.9538,VALID,0,VALID,24.9218,VALID,165,VALID,0,
2010-02-26, 01:39:04,VALID,1009.41,VALID,0,VALID,96.9386,VALID,0,VALID,24.9199,VALID,163,VALID,0.196094,
2010-02-26, 01:40:04,VALID,1009.4,VALID,0,VALID,96.9615,VALID,0,VALID,24.9218,VALID,155,VALID,0.846875,
2010-02-26, 01:41:04,VALID,1009.39,VALID,0,VALID,96.9538,VALID,0,VALID,24.9218,VALID,154,VALID,0.798047,
2010-02-26, 01:42:04,VALID,1009.36,VALID,0,VALID,96.9538,VALID,0,VALID,24.9218,VALID,154,VALID,0.366016,
2010-02-26, 01:43:04,VALID,1009.31,VALID,0,VALID,96.9462,VALID,0,VALID,24.9218,VALID,154,VALID,0.559766,
2010-02-26, 01:44:04,VALID,1009.31,VALID,0,VALID,96.9538,VALID,0,VALID,24.9218,VALID,154,VALID,0.423047,
2010-02-26, 01:45:04,VALID,1009.28,VALID,0,VALID,96.9462,VALID,0,VALID,24.9218,VALID,149,VALID,0.465234,
2010-02-26, 01:46:04,VALID,1009.3,VALID,0,VALID,96.9615,VALID,0,VALID,24.9199,VALID,144,VALID,0.390625,
2010-02-26, 01:47:04,VALID,1009.3,VALID,0,VALID,96.9462,VALID,0,VALID,24.9218,VALID,142,VALID,0.0976563,
2010-02-26, 01:48:04,VALID,1009.3,VALID,0,VALID,96.9538,VALID,0,VALID,24.9023,VALID,129,VALID,0.803516,
2010-02-26, 01:49:04,VALID,1009.32,VALID,0,VALID,96.9386,VALID,0,VALID,24.9413,VALID,107,VALID,0.442578,
2010-02-26, 01:50:04,VALID,1009.32,VALID,0,VALID,96.9615,VALID,0.105969,VALID,24.9413,VALID,100,VALID,0.857422,
2010-02-26, 01:51:04,VALID,1009.3,VALID,0,VALID,96.9157,VALID,0,VALID,24.9608,VALID,61,VALID,0.336328,
2010-02-26, 01:52:04,VALID,1009.3,VALID,0,VALID,96.9157,VALID,0.105969,VALID,24.9413,VALID,61,VALID,0.569531,
2010-02-26, 01:53:04,VALID,1009.29,VALID,0,VALID,96.8852,VALID,0,VALID,24.9199,VALID,62,VALID,0.171484,
2010-02-26, 01:54:04,VALID,1009.29,VALID,0,VALID,96.8471,VALID,0,VALID,24.9004,VALID,72,VALID,0.471484,
2010-02-26, 01:55:04,VALID,1009.3,VALID,0,VALID,96.7937,VALID,0.105969,VALID,24.9218,VALID,128,VALID,0.654297,
2010-02-26, 01:56:04,VALID,1009.28,VALID,0,VALID,96.7403,VALID,0,VALID,24.9218,VALID,128,VALID,0.600781,
2010-02-26, 01:57:04,VALID,1009.28,VALID,0,VALID,96.7174,VALID,0,VALID,24.9004,VALID,128,VALID,0.461328,
2010-02-26, 01:58:04,VALID,1009.25,VALID,0,VALID,96.6869,VALID,0,VALID,24.9023,VALID,143,VALID,0.512109,
2010-02-26, 01:59:04,VALID,1009.22,VALID,0,VALID,96.6412,VALID,0,VALID,24.9023,VALID,169,VALID,0.495703,
2010-02-26, 02:00:04,VALID,1009.22,VALID,0,VALID,96.6183,VALID,0,VALID,24.8828,VALID,169,VALID,0.0121094,
2010-02-26, 02:01:04,VALID,1009.27,VALID,0,VALID,96.603,VALID,0,VALID,24.9023,VALID,169,VALID,0.179297,
2010-02-26, 02:02:04,VALID,1009.28,VALID,0,VALID,96.5725,VALID,0,VALID,24.8828,VALID,114,VALID,0.439453,
2010-02-26, 02:03:04,VALID,1009.32,VALID,0,VALID,96.5802,VALID,0,VALID,24.8615,VALID,53,VALID,0.751953,
2010-02-26, 02:04:04,VALID,1009.28,VALID,0,VALID,96.5802,VALID,0,VALID,24.8828,VALID,35,VALID,0.622266,
2010-02-26, 02:05:04,VALID,1009.3,VALID,0,VALID,96.5725,VALID,0,VALID,24.8438,VALID,33,VALID,0.676953,
2010-02-26, 02:06:04,VALID,1009.28,VALID,0,VALID,96.5878,VALID,0,VALID,24.8244,VALID,39,VALID,0.729297,
2010-02-26, 02:07:04,VALID,1009.3,VALID,0,VALID,96.603,VALID,0,VALID,24.8244,VALID,44,VALID,0.249609,
2010-02-26, 02:08:04,VALID,1009.26,VALID,0,VALID,96.6335,VALID,0,VALID,24.8049,VALID,59,VALID,0.592188,
2010-02-26, 02:09:04,VALID,1009.26,VALID,0,VALID,96.6107,VALID,0,VALID,24.7854,VALID,67,VALID,0.0597656,
2010-02-26, 02:10:04,VALID,1009.27,VALID,0,VALID,96.6259,VALID,0,VALID,24.7854,VALID,67,VALID,0,
2010-02-26, 02:11:04,VALID,1009.25,VALID,0,VALID,96.6183,VALID,0,VALID,24.7854,VALID,67,VALID,0,
2010-02-26, 02:12:04,VALID,1009.25,VALID,0,VALID,96.6564,VALID,0,VALID,24.7854,VALID,67,VALID,0.003125,
2010-02-26, 02:13:04,VALID,1009.22,VALID,0,VALID,96.6488,VALID,0,VALID,24.7854,VALID,67,VALID,0.266406,
2010-02-26, 02:14:04,VALID,1009.26,VALID,0,VALID,96.664,VALID,0,VALID,24.7659,VALID,67,VALID,0,
2010-02-26, 02:15:04,VALID,1009.27,VALID,0,VALID,96.6259,VALID,0,VALID,24.7854,VALID,84,VALID,0.596484,
2010-02-26, 02:16:04,VALID,1009.25,VALID,0,VALID,96.603,VALID,0,VALID,24.7854,VALID,84,VALID,0.257422,
2010-02-26, 02:17:04,VALID,1009.25,VALID,0,VALID,96.6107,VALID,0,VALID,24.7854,VALID,84,VALID,0.221875,
2010-02-26, 02:18:04,VALID,1009.29,VALID,0,VALID,96.5878,VALID,0,VALID,24.7659,VALID,84,VALID,0,
2010-02-26, 02:19:04,VALID,1009.25,VALID,0,VALID,96.5725,VALID,0,VALID,24.7659,VALID,84,VALID,0,
2010-02-26, 02:20:04,VALID,1009.24,VALID,0,VALID,96.5802,VALID,0,VALID,24.7659,VALID,84,VALID,0,
2010-02-26, 02:21:04,VALID,1009.27,VALID,0,VALID,96.5802,VALID,0,VALID,24.7659,VALID,84,VALID,0,
2010-02-26, 02:22:04,VALID,1009.25,VALID,0,VALID,96.5954,VALID,0,VALID,24.7464,VALID,84,VALID,0,
2010-02-26, 02:23:04,VALID,1009.24,VALID,0,VALID,96.6107,VALID,0.105969,VALID,24.7269,VALID,84,VALID,0,
2010-02-26, 02:24:04,VALID,1009.25,VALID,0,VALID,96.5649,VALID,0,VALID,24.7269,VALID,84,VALID,0,
2010-02-26, 02:25:04,VALID,1009.22,VALID,0,VALID,96.603,VALID,0,VALID,24.7269,VALID,84,VALID,0,
2010-02-26, 02:26:04,VALID,1009.21,VALID,0,VALID,96.6259,VALID,0,VALID,24.7074,VALID,84,VALID,0,
2010-02-26, 02:27:04,VALID,1009.17,VALID,0,VALID,96.6259,VALID,0,VALID,24.6879,VALID,84,VALID,0,
2010-02-26, 02:28:04,VALID,1009.18,VALID,0,VALID,96.6412,VALID,0,VALID,24.6684,VALID,84,VALID,0,
2010-02-26, 02:29:04,VALID,1009.18,VALID,0,VALID,96.6488,VALID,0,VALID,24.6879,VALID,84,VALID,0,
2010-02-26, 02:30:04,VALID,1009.15,VALID,0,VALID,96.6869,VALID,0,VALID,24.6879,VALID,84,VALID,0,
2010-02-26, 02:31:04,VALID,1009.17,VALID,0,VALID,96.7251,VALID,0,VALID,24.6684,VALID,84,VALID,0,
2010-02-26, 02:32:04,VALID,1009.16,VALID,0,VALID,96.7403,VALID,0,VALID,24.6684,VALID,84,VALID,0,
2010-02-26, 02:33:04,VALID,1009.15,VALID,0,VALID,96.7708,VALID,0,VALID,24.6489,VALID,84,VALID,0,
2010-02-26, 02:34:04,VALID,1009.14,VALID,0,VALID,96.7708,VALID,0,VALID,24.6489,VALID,84,VALID,0,
2010-02-26, 02:35:04,VALID,1009.14,VALID,0,VALID,96.8013,VALID,0,VALID,24.6489,VALID,84,VALID,0,
2010-02-26, 02:36:04,VALID,1009.14,VALID,0,VALID,96.8166,VALID,0,VALID,24.6489,VALID,84,VALID,0,
2010-02-26, 02:37:04,VALID,1009.15,VALID,0,VALID,96.8471,VALID,0,VALID,24.6489,VALID,123,VALID,0.472266,
2010-02-26, 02:38:04,VALID,1009.18,VALID,0,VALID,96.8318,VALID,0,VALID,24.6489,VALID,125,VALID,0.447266,
2010-02-26, 02:39:04,VALID,1009.19,VALID,0,VALID,96.8623,VALID,0,VALID,24.6294,VALID,166,VALID,0.437891,
2010-02-26, 02:40:04,VALID,1009.18,VALID,0,VALID,96.8852,VALID,0,VALID,24.6099,VALID,166,VALID,0.387891,
2010-02-26, 02:41:04,VALID,1009.16,VALID,0,VALID,96.8776,VALID,0,VALID,24.6099,VALID,166,VALID,0.180859,
2010-02-26, 02:42:04,VALID,1009.13,VALID,0,VALID,96.8852,VALID,0,VALID,24.6099,VALID,166,VALID,0,
2010-02-26, 02:43:04,VALID,1009.14,VALID,0,VALID,96.8776,VALID,0,VALID,24.6099,VALID,166,VALID,0,
2010-02-26, 02:44:04,VALID,1009.11,VALID,0,VALID,96.8852,VALID,0,VALID,24.6489,VALID,166,VALID,0,
2010-02-26, 02:45:04,VALID,1009.11,VALID,0,VALID,96.9005,VALID,0,VALID,24.6294,VALID,166,VALID,0,
2010-02-26, 02:46:04,VALID,1009.1,VALID,0,VALID,96.8928,VALID,0,VALID,24.6489,VALID,166,VALID,0,
2010-02-26, 02:47:04,VALID,1009.06,VALID,0,VALID,96.8928,VALID,0,VALID,24.6684,VALID,166,VALID,0,
2010-02-26, 02:48:04,VALID,1009.05,VALID,0,VALID,96.9233,VALID,0,VALID,24.6684,VALID,166,VALID,0,
2010-02-26, 02:49:04,VALID,1009.07,VALID,0,VALID,96.8928,VALID,0.105969,VALID,24.6684,VALID,166,VALID,0,
2010-02-26, 02:50:04,VALID,1009.05,VALID,0,VALID,96.8928,VALID,0,VALID,24.6276,VALID,166,VALID,0,
2010-02-26, 02:51:04,VALID,1009.04,VALID,0,VALID,96.8699,VALID,0,VALID,24.6684,VALID,166,VALID,0,
2010-02-26, 02:52:04,VALID,1009.03,VALID,0,VALID,96.8928,VALID,0,VALID,24.6879,VALID,166,VALID,0,
2010-02-26, 02:53:04,VALID,1009.02,VALID,0,VALID,96.9005,VALID,0,VALID,24.6879,VALID,166,VALID,0,
2010-02-26, 02:54:04,VALID,1008.98,VALID,0,VALID,96.8928,VALID,0.105969,VALID,24.7074,VALID,166,VALID,0,
2010-02-26, 02:55:04,VALID,1008.95,VALID,0,VALID,96.8852,VALID,0,VALID,24.7074,VALID,166,VALID,0,
2010-02-26, 02:56:04,VALID,1008.93,VALID,0,VALID,96.8852,VALID,0,VALID,24.7074,VALID,166,VALID,0,
2010-02-26, 02:57:04,VALID,1008.89,VALID,0,VALID,96.9005,VALID,0,VALID,24.7074,VALID,166,VALID,0,
2010-02-26, 02:58:04,VALID,1008.88,VALID,0,VALID,96.8699,VALID,0,VALID,24.7074,VALID,166,VALID,0,
2010-02-26, 02:59:04,VALID,1008.86,VALID,0,VALID,96.8776,VALID,0,VALID,24.7269,VALID,166,VALID,0,
2010-02-26, 03:00:04,VALID,1008.84,VALID,0,VALID,96.8699,VALID,0,VALID,24.7269,VALID,166,VALID,0,
2010-02-26, 03:01:04,VALID,1008.83,VALID,0,VALID,96.8699,VALID,0,VALID,24.7464,VALID,166,VALID,0,
2010-02-26, 03:02:04,VALID,1008.82,VALID,0,VALID,96.8547,VALID,0.105969,VALID,24.725,VALID,166,VALID,0,
2010-02-26, 03:03:04,VALID,1008.86,VALID,0,VALID,96.8471,VALID,0,VALID,24.7659,VALID,166,VALID,0,
2010-02-26, 03:04:04,VALID,1008.84,VALID,0,VALID,96.8394,VALID,0,VALID,24.7659,VALID,166,VALID,0,
2010-02-26, 03:05:04,VALID,1008.85,VALID,0,VALID,96.8242,VALID,0,VALID,24.7445,VALID,166,VALID,0,
2010-02-26, 03:06:04,VALID,1008.86,VALID,0,VALID,96.8242,VALID,0,VALID,24.7659,VALID,166,VALID,0,
2010-02-26, 03:07:04,VALID,1008.85,VALID,0,VALID,96.7937,VALID,0,VALID,24.7464,VALID,166,VALID,0,
2010-02-26, 03:08:04,VALID,1008.81,VALID,0,VALID,96.8089,VALID,0,VALID,24.7269,VALID,166,VALID,0,
2010-02-26, 03:09:04,VALID,1008.83,VALID,0,VALID,96.7784,VALID,0,VALID,24.7269,VALID,166,VALID,0,
2010-02-26, 03:10:04,VALID,1008.82,VALID,0,VALID,96.7937,VALID,0,VALID,24.7464,VALID,166,VALID,0,
2010-02-26, 03:11:04,VALID,1008.81,VALID,0,VALID,96.8166,VALID,0,VALID,24.7269,VALID,166,VALID,0,
2010-02-26, 03:12:04,VALID,1008.79,VALID,0,VALID,96.8318,VALID,0,VALID,24.7269,VALID,166,VALID,0,
2010-02-26, 03:13:04,VALID,1008.8,VALID,0,VALID,96.8471,VALID,0,VALID,24.7269,VALID,166,VALID,0,
2010-02-26, 03:14:04,VALID,1008.78,VALID,0,VALID,96.8394,VALID,0,VALID,24.7074,VALID,166,VALID,0,
2010-02-26, 03:15:04,VALID,1008.78,VALID,0,VALID,96.8623,VALID,0,VALID,24.6879,VALID,166,VALID,0,
2010-02-26, 03:16:04,VALID,1008.79,VALID,0,VALID,96.8623,VALID,0,VALID,24.6879,VALID,166,VALID,0,
2010-02-26, 03:17:04,VALID,1008.77,VALID,0,VALID,96.8623,VALID,0,VALID,24.6684,VALID,166,VALID,0,
2010-02-26, 03:18:04,VALID,1008.78,VALID,0,VALID,96.8623,VALID,0,VALID,24.6489,VALID,166,VALID,0,
2010-02-26, 03:19:04,VALID,1008.76,VALID,0,VALID,96.8852,VALID,0,VALID,24.6489,VALID,166,VALID,0,
2010-02-26, 03:20:05,VALID,1008.74,VALID,0,VALID,96.8852,VALID,0,VALID,24.6489,VALID,166,VALID,0,
2010-02-26, 03:21:05,VALID,1008.76,VALID,0,VALID,96.9005,VALID,0,VALID,24.6489,VALID,166,VALID,0,
2010-02-26, 03:22:05,VALID,1008.73,VALID,0,VALID,96.9081,VALID,0,VALID,24.6489,VALID,166,VALID,0,
2010-02-26, 03:23:05,VALID,1008.71,VALID,0,VALID,96.8852,VALID,0.105969,VALID,24.6081,VALID,166,VALID,0,
2010-02-26, 03:24:05,VALID,1008.7,VALID,0,VALID,96.9081,VALID,0,VALID,24.6081,VALID,166,VALID,0,
2010-02-26, 03:25:05,VALID,1008.69,VALID,0,VALID,96.931,VALID,0,VALID,24.6294,VALID,166,VALID,0,
2010-02-26, 03:26:05,VALID,1008.69,VALID,0,VALID,96.931,VALID,0,VALID,24.6294,VALID,166,VALID,0,
2010-02-26, 03:27:05,VALID,1008.66,VALID,0,VALID,96.9233,VALID,0,VALID,24.6099,VALID,166,VALID,0,
2010-02-26, 03:28:05,VALID,1008.66,VALID,0,VALID,96.931,VALID,0,VALID,24.6081,VALID,166,VALID,0,
2010-02-26, 03:29:05,VALID,1008.63,VALID,0,VALID,96.9386,VALID,0.105969,VALID,24.6099,VALID,166,VALID,0,
2010-02-26, 03:30:05,VALID,1008.64,VALID,0,VALID,96.9386,VALID,0.105969,VALID,24.5905,VALID,166,VALID,0,
2010-02-26, 03:31:05,VALID,1008.65,VALID,0,VALID,96.9462,VALID,0,VALID,24.5691,VALID,166,VALID,0,
2010-02-26, 03:32:05,VALID,1008.6,VALID,0,VALID,96.931,VALID,0,VALID,24.5905,VALID,166,VALID,0,
2010-02-26, 03:33:05,VALID,1008.61,VALID,0,VALID,96.9386,VALID,0,VALID,24.5905,VALID,166,VALID,0,
2010-02-26, 03:34:05,VALID,1008.61,VALID,0,VALID,96.931,VALID,0,VALID,24.5905,VALID,166,VALID,0,
2010-02-26, 03:35:05,VALID,1008.59,VALID,0,VALID,96.9386,VALID,0,VALID,24.5905,VALID,166,VALID,0,
2010-02-26, 03:36:05,VALID,1008.61,VALID,0,VALID,96.9538,VALID,0,VALID,24.5905,VALID,166,VALID,0,
2010-02-26, 03:37:05,VALID,1008.59,VALID,0,VALID,96.9386,VALID,0,VALID,24.5905,VALID,166,VALID,0,
2010-02-26, 03:38:05,VALID,1008.62,VALID,0,VALID,96.9691,VALID,0.105969,VALID,24.5905,VALID,166,VALID,0,
2010-02-26, 03:39:05,VALID,1008.61,VALID,0,VALID,96.9691,VALID,0,VALID,24.571,VALID,166,VALID,0,
2010-02-26, 03:40:05,VALID,1008.63,VALID,0,VALID,96.9538,VALID,0,VALID,24.5515,VALID,166,VALID,0,
2010-02-26, 03:41:05,VALID,1008.65,VALID,0,VALID,96.9462,VALID,0,VALID,24.571,VALID,166,VALID,0,
2010-02-26, 03:42:05,VALID,1008.65,VALID,0,VALID,96.9767,VALID,0,VALID,24.571,VALID,166,VALID,0,
2010-02-26, 03:43:05,VALID,1008.7,VALID,0,VALID,96.9615,VALID,0,VALID,24.5515,VALID,166,VALID,0,
2010-02-26, 03:44:05,VALID,1008.7,VALID,0,VALID,96.9462,VALID,0.105969,VALID,24.532,VALID,166,VALID,0,
2010-02-26, 03:45:05,VALID,1008.74,VALID,0,VALID,96.9538,VALID,0,VALID,24.5106,VALID,136,VALID,0,
2010-02-26, 03:46:05,VALID,1008.71,VALID,0,VALID,96.9615,VALID,0,VALID,24.5125,VALID,136,VALID,0,
2010-02-26, 03:47:05,VALID,1008.7,VALID,0,VALID,96.9767,VALID,0,VALID,24.493,VALID,136,VALID,0,
2010-02-26, 03:48:05,VALID,1008.71,VALID,0,VALID,96.9843,VALID,0.105969,VALID,24.493,VALID,136,VALID,0,
2010-02-26, 03:49:05,VALID,1008.69,VALID,0,VALID,96.9767,VALID,0.105969,VALID,24.4735,VALID,136,VALID,0,
2010-02-26, 03:50:05,VALID,1008.73,VALID,0,VALID,96.9996,VALID,0,VALID,24.4735,VALID,136,VALID,0,
2010-02-26, 03:51:05,VALID,1008.74,VALID,0,VALID,96.9767,VALID,0,VALID,24.4717,VALID,136,VALID,0,